User: anonymous   Login
Location: Unspecified
(0.0000°N, 0.0000°E)
Time: 13:25:49
(UTC+01:00)
Language:

Resurs 01 Rocket - Orbit

View from above orbital plane
View from above orbital plane
View from above satellite
View from above satellite

Ground track
Ground track

The orbit data is extracted from the following two-line orbital elements,

1 23343U 94074B   15058.68191854  .00000397  00000-0  64821-4 0  9994
2 23343 098.2239 072.1688 0005856 239.8229 219.6487 14.76421599 92793
Epoch (UTC): 27 February 2015 16:21:57
Eccentricity: 0.0005856
inclination: 98.2239°
perigee height: 636 km
apogee height: 645 km
right ascension of ascending node: 72.1688°
argument of perigee: 239.8229°
revolutions per day: 14.76421599
mean anomaly at epoch: 219.6487°
orbit number at epoch: 9279

The dashed part of the orbit path shows where the satellite is in the earth's shadow,  

DLR